SCP
0 0 0 0 0 0 0 0 0 0 0 0 0 0 0 0 0 0 0 0 0 0 0 0 0 0 0 0 0 0 0 0 0 0 0 0 0 0 0 0 0 0 0
0 0 0 0 0 0 -0 -0 0 0 0 0 0 0 0 0 0 0 0 0 0 0 0 0 -0 0 0 0 0 0 0 0 0 0 0 0 0 0 0 0 0 0 0
0 0 0 0 0 -0 0 -0 -0 -0 -0 -0 -0 0 0 0 0 0 0 0 0 0 0 0 0 0 0 0 0 0 0 0 0 0 0 0 0 0 0 0 0 0 0
0 0 0 0 0 0 0 -0 -0 0 -0 -0 -0 0 0 0 0 0 0 0 0 0 0 0 0 0 0 0 0 0 -0 0 0 0 0 0 0 0 0 0 0 0 0
0 0 0 0 -0 -0 0 -0 -0 -0 -0 -0 -0 -0 0 0 0 0 0 0 0 0 0 0 0 0 0 0 0 0 0 0 0 0 0 0 0 0 -0 0 0 0 0
0 0 0 0 -0 -0 -0 -0 0 -0 -0 -0 -0 -0 -0 0 0 0 0 0 0 0 0 0 0 0 0 0 -0 -0 0 0 0 0 0 0 0 0 0 0 0 0 0
0 0 0 0 0 -0 -0 -0 -0 -0 -0 -0 0 -0 0 0 0 0 0 0 0 0 0 0 0 0 0 0 -0 0 0 0 0 0 0 0 0 -0 -0 -0 -0 -0 0
0 0 0 0 0 -0 -0 -0 -0 -0 -0 -0 0 0 0 -0 -0 -0 0 0 0 0 0 0 0 0 0 0 0 0 0 0 0 0 0 0 0 -0 -0 -0 -0 0 0
-0 -0 0 0 0 0 0 0 0 0 0 0 0 0 0 0 0 0 0 0 0 0 0 0 0 0 -0 0 0 0 0 0 0 0 0 0 -0 0 0 0 0 0 0
-0 -0 -0 0 0 0 0 0 0 0 0 0 0 0 0 0 0 0 0 0 0 0 0 0 -0 -0 -0 0 0 0 0 0 0 0 0 -0 -0 -0 -0 -0 0 0 0
-0 -0 -0 -0 0 0 0 0 0 0 0 0 -0 0 0 0 0 0 -0 -0 -0 0 0 0 0 0 0 0 0 -0 -0 -0 -0 0 0 0 0 0 0 0 0 0 0
-0 -0 -0 -0 0 0 0 0 0 0 0 0 -0 0 0 0 0 0 0 0 -0 -0 -0 -0 -0 -0 0 0 0 -0 0 0 0 -0 -0 -0 -0 0 0 0 0 0 0
-0 -0 -0 -0 -0 -0 -0 -0 0 0 0 0 0 0 0 0 0 0 0 0 -0 -0 -0 -0 -0 -0 -0 -0 -0 0 0 0 -0 -0 -0 0 0 0 0 0 0 0 0
-0 -0 -0 -0 -0 0 0 0 0 0 0 0 0 0 0 0 0 -0 -0 -0 -0 -0 -0 -0 -0 -0 -0 0 0 0 0 -0 0 0 0 0 0 0 0 0 0 0 0
-0 -0 -0 -0 -0 0 0 0 0 0 0 0 0 0 0 -0 -0 -0 -0 -0 -0 -0 0 -0 -0 0 0 0 -0 -0 -0 0 0 0 0 0 0 0 0 0 0 0 0
-0 -0 -0 -0 0 0 0 -0 0 -0 -0 0 -0 0 0 -0 0 -0 0 0 -0 -0 0 0 0 -0 -0 -0 0 0 0 0 0 0 0 0 0 0 0 0 0 0 0
-0 -0 0 -0 0 0 0 0 0 0 -0 -0 -0 -0 -0 -0 0 -0 -0 -0 -0 -0 -0 0 0 0 -0 -0 0 0 0 0 0 0 0 0 0 0 0 0 0 0 0
-0 -0 0 0 0 0 0 0 0 0 0 -0 -0 -0 -0 -0 0 0 -0 -0 0 0 0 0 0 0 0 0 0 0 0 0 0 0 0 0 0 0 0 0 0 0 0
0 0 0 0 0 0 0 0 0 0 0 0 0 0 0 0 0 0 -0 0 0 0 0 0 0 0 0 0 0 0 0 0 0 0 0 0 0 0 0 0 0 0 0
0 0 0 0 0 0 0 0 0 0 0 0 0 0 0 0 0 0 0 0 0 0 0 0 0 0 0 0 0 0 0 0 0 0 0 0 0 0 0 0 0 0 0
0 0 0 0 0 0 0 0 0 0 0 0 0 0 0 0 0 0 0 0 0 0 0 0 0 0 0 0 0 0 0 0 0 0 0 0 0 0 0 0 0 0 0
0 0 0 0 0 0 0 0 0 0 0 0 0 0 0 0 0 0 0 0 0 0 0 0 0 0 0 0 0 0 0 0 0 0 0 0 0 0 0 0 0 0 0
0 0 0 0 0 0 0 0 0 0 0 0 0 0 0 0 0 0 0 0 0 0 0 0 0 0 0 0 0 0 0 0 0 0 0 0 0 0 0 0 0 0 0
0 0 0 0 0 0 0 0 0 0 0 0 0 0 0 0 0 0 0 0 0 0 0 0 0 0 0 0 0 0 0 0 0 0 0 0 0 0 0 0 0 0 0
0 0 0 0 0 0 0 0 0 0 0 0 0 0 0 0 0 0 0 0 0 0 0 0 0 0 0 0 0 0 0 0 0 0 0 0 0 0 0 0 0 0 0
0 0 0 0 0 0 0 0 0 0 0 0 0 0 0 0 0 0 0 0 0 0 0 0 0 0 0 0 0 0 0 0 0 0 0 0 0 0 0 0 0 0 0
Wind_Speed_500mb
11 6 2 7 11 11 7 9 5 12 18 20 23 21 13 12 12 10 15 14 15 18 17 15 15 26 31 31 11 28 37 41 50 45 50 66 58 53 62 51 42 31 27
11 7 3 4 7 9 7 11 12 12 17 20 21 18 12 13 13 15 17 17 16 18 17 17 17 22 34 27 19 27 27 28 39 55 60 66 57 55 51 43 31 23 24
11 9 7 3 5 9 13 14 12 16 20 21 21 19 19 17 16 15 15 16 16 18 18 21 24 20 24 23 27 17 31 29 42 53 57 62 56 54 47 34 25 26 24
14 10 8 4 5 8 19 18 17 23 23 24 26 27 25 21 19 19 19 23 24 22 21 22 24 23 23 29 24 27 37 38 39 43 49 61 61 60 40 30 26 26 24
17 13 10 11 9 15 21 19 17 20 24 25 28 29 25 23 24 25 31 31 25 23 25 24 27 28 27 33 32 35 36 42 50 54 61 61 61 51 39 28 32 30 26
21 16 16 17 18 18 24 22 21 19 23 25 24 22 24 24 22 22 15 15 17 20 27 29 32 33 36 33 29 31 48 48 52 61 54 49 54 44 36 38 35 30 27
27 21 24 23 21 22 24 20 18 21 20 17 16 14 19 23 22 18 11 7 9 21 29 32 33 37 45 43 46 40 46 57 49 34 31 35 41 39 38 39 34 31 28
35 26 28 26 28 26 23 19 16 17 20 19 11 11 18 25 23 17 13 15 24 29 35 38 42 56 49 48 45 41 46 42 23 27 32 39 40 41 36 33 31 23 18
42 34 31 31 29 28 23 18 16 16 24 22 28 30 27 34 26 24 28 31 31 35 37 43 38 52 53 43 38 34 37 40 39 40 41 40 40 35 28 23 19 15 16
47 39 32 37 31 30 23 19 19 20 24 24 24 21 28 32 33 34 34 38 41 48 52 56 54 55 47 35 31 37 40 38 37 38 33 34 32 29 24 21 16 14 12
44 42 36 37 36 31 29 25 22 23 25 26 24 23 22 25 31 30 29 33 44 54 51 53 51 41 30 31 39 36 32 32 33 35 35 28 25 24 22 18 15 11 5
45 48 40 37 41 36 32 30 27 25 25 26 25 25 24 24 27 30 33 31 33 40 41 44 37 30 31 34 36 35 32 26 25 24 21 19 19 19 17 11 8 6 6
50 51 45 38 44 40 37 36 33 28 27 27 26 25 25 25 27 29 29 27 27 28 32 31 28 28 32 36 36 33 28 22 18 18 19 20 20 16 14 12 9 10 4
56 55 49 45 44 47 40 39 36 34 31 28 31 29 28 28 29 29 28 27 26 27 31 32 32 32 32 34 38 37 30 23 20 19 22 22 21 20 18 17 16 7 4
58 60 55 52 45 49 46 45 41 34 29 31 30 29 33 34 32 28 27 28 28 28 29 34 36 37 37 37 37 36 34 31 29 29 30 26 25 24 27 23 15 10 7
64 66 63 61 55 49 51 47 45 40 33 27 24 29 26 22 27 28 26 25 25 28 34 37 39 41 41 41 42 41 39 37 36 34 32 31 29 29 31 27 19 15 12
66 69 70 66 64 61 56 51 48 44 42 38 33 32 34 28 28 28 30 36 38 38 38 39 41 44 46 47 47 47 45 42 39 37 36 36 35 34 35 31 27 24 24
70 66 68 69 69 64 63 57 50 46 46 47 44 41 41 42 38 37 38 39 48 53 51 46 46 45 49 52 54 53 50 48 47 44 43 41 41 42 41 39 35 33 31
77 73 70 67 68 67 62 61 59 55 50 48 47 49 49 49 50 51 52 53 53 57 58 57 52 51 51 54 56 58 58 56 53 52 51 50 48 47 47 44 36 35 31
78 74 73 72 69 69 65 62 60 62 59 56 52 52 52 57 62 65 67 66 65 62 58 60 60 58 57 57 59 61 63 63 62 60 59 56 53 52 52 47 45 45 40
80 77 75 76 73 71 69 67 64 63 63 62 55 50 49 55 58 65 70 71 71 68 62 59 58 61 64 64 64 65 66 67 68 66 64 59 57 56 50 50 53 47 28
77 76 75 76 79 77 75 73 68 65 63 63 61 59 55 56 57 59 63 70 69 67 65 61 60 60 60 65 68 68 70 72 71 69 67 66 65 60 51 51 43 34 20
73 71 73 73 75 80 80 77 74 72 67 62 60 63 66 65 63 59 60 60 63 67 66 66 63 61 59 59 61 65 73 72 65 69 77 73 70 69 67 65 61 39 31
63 71 70 68 70 73 75 79 79 77 74 72 66 65 67 68 63 60 54 52 54 56 60 63 66 65 64 61 63 66 66 65 74 77 80 78 79 77 77 72 59 48 51
45 55 67 75 69 68 68 66 69 71 71 71 71 65 60 62 64 61 53 50 51 54 54 55 58 61 64 66 67 68 73 80 83 76 71 73 77 83 80 68 54 52 50
56 63 66 76 77 71 73 66 59 58 58 57 57 59 58 56 55 57 58 58 59 56 52 54 57 61 64 67 68 70 73 76 70 67 68 75 84 82 79 68 58 59 49
Wind_Direction_500mb
187 181 120 11 17 36 50 27 123 139 152 161 167 163 147 155 159 158 160 161 166 176 180 191 196 196 190 187 191 164 175 160 159 164 163 167 153 152 153 154 147 150 152
198 197 176 27 31 32 82 73 107 133 144 150 166 181 166 153 151 151 153 147 147 161 164 164 153 151 168 179 159 163 163 167 175 146 163 166 165 155 149 146 134 144 136
186 176 172 75 48 37 116 106 106 124 140 140 144 149 142 137 135 136 140 142 139 144 158 164 160 163 176 179 177 183 176 173 167 161 158 168 167 164 153 147 143 129 128
180 171 163 129 75 86 124 104 109 121 123 126 129 131 130 122 112 118 124 122 121 122 128 134 152 150 154 159 168 169 151 151 164 173 166 178 176 158 156 149 140 130 140
182 178 163 143 111 120 128 114 119 122 125 125 128 128 128 128 123 120 120 115 108 118 125 135 140 138 154 156 144 160 159 156 153 136 146 157 176 169 166 156 147 143 135
187 177 156 144 124 119 132 115 116 121 126 129 133 135 138 135 135 132 122 119 118 129 130 138 137 152 132 141 140 145 155 141 151 147 140 143 151 159 160 155 151 145 136
191 181 162 150 132 126 133 123 116 128 133 133 135 147 160 157 153 161 160 146 135 136 140 141 146 158 142 145 133 128 128 136 122 120 140 151 151 150 150 153 148 145 143
195 186 173 161 144 136 128 122 119 130 141 143 139 140 152 166 157 165 178 140 127 136 148 151 152 142 144 137 137 132 130 143 139 128 134 139 142 140 137 142 152 152 147
199 192 180 174 163 151 140 120 119 114 136 135 108 99 123 128 129 131 134 131 127 141 152 153 154 151 143 141 135 139 142 140 134 126 129 134 139 142 148 156 156 152 155
200 195 186 181 177 165 157 141 131 121 134 143 134 114 98 110 124 127 128 130 124 130 132 143 149 144 142 137 139 143 141 142 143 141 137 140 143 148 149 152 148 147 163
196 196 192 188 183 174 166 160 149 140 132 142 142 132 124 114 114 120 133 143 138 139 136 140 147 143 140 136 137 144 145 139 142 153 145 143 145 149 150 146 148 146 197
198 197 195 191 188 185 181 172 164 161 151 144 141 136 136 138 133 129 128 134 143 151 149 150 153 156 156 150 146 149 151 146 141 150 157 154 156 162 161 166 175 201 259
200 200 196 192 194 194 191 189 182 176 176 172 167 157 148 141 139 139 142 146 153 158 161 165 171 168 169 167 167 168 171 179 192 190 183 177 181 195 199 196 207 234 273
201 201 198 196 195 199 200 202 202 196 192 191 188 185 177 169 166 164 160 158 160 166 176 174 174 176 178 182 186 185 188 197 210 209 203 205 212 211 207 219 229 243 271
201 202 200 200 198 199 203 206 207 210 213 206 202 201 198 194 187 181 182 181 181 184 188 194 194 193 192 191 193 198 202 205 206 210 212 220 224 219 217 224 233 239 253
202 203 202 201 201 201 203 206 212 215 215 215 222 223 213 210 209 209 205 206 210 211 210 209 208 208 208 208 207 208 209 209 210 217 227 235 236 232 229 223 224 235 228
208 204 204 204 203 205 205 206 209 211 217 220 217 213 220 224 215 214 220 224 224 224 225 226 224 223 220 219 218 217 217 217 222 230 236 239 237 237 229 224 227 229 211
210 211 206 206 206 207 211 212 212 212 213 217 215 216 217 216 216 218 223 225 224 225 226 227 226 226 226 225 222 222 223 225 231 235 238 239 239 238 230 225 226 216 209
210 212 211 211 210 211 211 216 220 220 218 220 217 216 217 219 218 219 222 228 230 229 228 229 228 228 230 229 230 230 230 233 238 242 242 241 241 236 227 224 221 208 207
213 216 215 214 214 215 215 217 221 227 228 227 225 227 226 225 225 223 224 226 227 228 229 231 232 234 235 235 236 238 238 240 243 245 244 242 238 234 229 226 215 208 202
213 217 218 219 220 220 221 220 220 224 230 232 232 232 234 235 237 235 233 231 231 232 231 232 234 236 239 241 241 242 244 246 247 247 247 245 238 230 224 228 214 203 194
216 218 220 222 224 224 226 226 227 229 232 236 237 237 237 238 240 240 240 240 240 240 242 242 241 240 242 245 246 245 245 248 249 250 246 241 228 219 218 217 211 199 182
224 224 223 226 229 229 230 231 231 232 232 234 237 240 240 240 242 244 243 242 243 243 245 248 251 254 251 250 251 251 250 249 250 260 250 237 223 220 213 198 194 197 208
231 231 231 230 233 234 233 234 235 235 237 239 238 242 245 244 246 247 248 248 247 247 246 248 251 254 256 255 254 253 254 245 247 249 243 233 222 216 202 191 194 193 203
237 236 239 236 233 236 236 236 237 236 236 239 245 244 244 247 247 249 249 251 252 252 253 254 256 258 260 260 258 256 254 249 249 244 237 230 222 211 198 190 191 189 209
231 238 240 243 238 235 238 239 239 237 236 234 237 244 250 253 254 254 256 257 258 261 262 262 260 259 259 260 260 260 257 256 252 248 242 220 215 208 198 189 187 192 207
Wind_Speed_850mb
11 6 2 7 11 11 7 9 5 12 18 20 23 21 13 12 12 10 15 14 15 18 17 15 15 26 31 31 11 28 37 41 50 45 50 66 58 53 62 51 42 31 27
11 7 3 4 7 9 7 11 12 12 17 20 21 18 12 13 13 15 17 17 16 18 17 17 17 22 34 27 19 27 27 28 39 55 60 66 57 55 51 43 31 23 24
11 9 7 3 5 9 13 14 12 16 20 21 21 19 19 17 16 15 15 16 16 18 18 21 24 20 24 23 27 17 31 29 42 53 57 62 56 54 47 34 25 26 24
14 10 8 4 5 8 19 18 17 23 23 24 26 27 25 21 19 19 19 23 24 22 21 22 24 23 23 29 24 27 37 38 39 43 49 61 61 60 40 30 26 26 24
17 13 10 11 9 15 21 19 17 20 24 25 28 29 25 23 24 25 31 31 25 23 25 24 27 28 27 33 32 35 36 42 50 54 61 61 61 51 39 28 32 30 26
21 16 16 17 18 18 24 22 21 19 23 25 24 22 24 24 22 22 15 15 17 20 27 29 32 33 36 33 29 31 48 48 52 61 54 49 54 44 36 38 35 30 27
27 21 24 23 21 22 24 20 18 21 20 17 16 14 19 23 22 18 11 7 9 21 29 32 33 37 45 43 46 40 46 57 49 34 31 35 41 39 38 39 34 31 28
35 26 28 26 28 26 23 19 16 17 20 19 11 11 18 25 23 17 13 15 24 29 35 38 42 56 49 48 45 41 46 42 23 27 32 39 40 41 36 33 31 23 18
42 34 31 31 29 28 23 18 16 16 24 22 28 30 27 34 26 24 28 31 31 35 37 43 38 52 53 43 38 34 37 40 39 40 41 40 40 35 28 23 19 15 16
47 39 32 37 31 30 23 19 19 20 24 24 24 21 28 32 33 34 34 38 41 48 52 56 54 55 47 35 31 37 40 38 37 38 33 34 32 29 24 21 16 14 12
44 42 36 37 36 31 29 25 22 23 25 26 24 23 22 25 31 30 29 33 44 54 51 53 51 41 30 31 39 36 32 32 33 35 35 28 25 24 22 18 15 11 5
45 48 40 37 41 36 32 30 27 25 25 26 25 25 24 24 27 30 33 31 33 40 41 44 37 30 31 34 36 35 32 26 25 24 21 19 19 19 17 11 8 6 6
50 51 45 38 44 40 37 36 33 28 27 27 26 25 25 25 27 29 29 27 27 28 32 31 28 28 32 36 36 33 28 22 18 18 19 20 20 16 14 12 9 10 4
56 55 49 45 44 47 40 39 36 34 31 28 31 29 28 28 29 29 28 27 26 27 31 32 32 32 32 34 38 37 30 23 20 19 22 22 21 20 18 17 16 7 4
58 60 55 52 45 49 46 45 41 34 29 31 30 29 33 34 32 28 27 28 28 28 29 34 36 37 37 37 37 36 34 31 29 29 30 26 25 24 27 23 15 10 7
64 66 63 61 55 49 51 47 45 40 33 27 24 29 26 22 27 28 26 25 25 28 34 37 39 41 41 41 42 41 39 37 36 34 32 31 29 29 31 27 19 15 12
66 69 70 66 64 61 56 51 48 44 42 38 33 32 34 28 28 28 30 36 38 38 38 39 41 44 46 47 47 47 45 42 39 37 36 36 35 34 35 31 27 24 24
70 66 68 69 69 64 63 57 50 46 46 47 44 41 41 42 38 37 38 39 48 53 51 46 46 45 49 52 54 53 50 48 47 44 43 41 41 42 41 39 35 33 31
77 73 70 67 68 67 62 61 59 55 50 48 47 49 49 49 50 51 52 53 53 57 58 57 52 51 51 54 56 58 58 56 53 52 51 50 48 47 47 44 36 35 31
78 74 73 72 69 69 65 62 60 62 59 56 52 52 52 57 62 65 67 66 65 62 58 60 60 58 57 57 59 61 63 63 62 60 59 56 53 52 52 47 45 45 40
80 77 75 76 73 71 69 67 64 63 63 62 55 50 49 55 58 65 70 71 71 68 62 59 58 61 64 64 64 65 66 67 68 66 64 59 57 56 50 50 53 47 28
77 76 75 76 79 77 75 73 68 65 63 63 61 59 55 56 57 59 63 70 69 67 65 61 60 60 60 65 68 68 70 72 71 69 67 66 65 60 51 51 43 34 20
73 71 73 73 75 80 80 77 74 72 67 62 60 63 66 65 63 59 60 60 63 67 66 66 63 61 59 59 61 65 73 72 65 69 77 73 70 69 67 65 61 39 31
63 71 70 68 70 73 75 79 79 77 74 72 66 65 67 68 63 60 54 52 54 56 60 63 66 65 64 61 63 66 66 65 74 77 80 78 79 77 77 72 59 48 51
45 55 67 75 69 68 68 66 69 71 71 71 71 65 60 62 64 61 53 50 51 54 54 55 58 61 64 66 67 68 73 80 83 76 71 73 77 83 80 68 54 52 50
56 63 66 76 77 71 73 66 59 58 58 57 57 59 58 56 55 57 58 58 59 56 52 54 57 61 64 67 68 70 73 76 70 67 68 75 84 82 79 68 58 59 49
Wind_Direction_850mb
187 181 120 11 17 36 50 27 123 139 152 161 167 163 147 155 159 158 160 161 166 176 180 191 196 196 190 187 191 164 175 160 159 164 163 167 153 152 153 154 147 150 152
198 197 176 27 31 32 82 73 107 133 144 150 166 181 166 153 151 151 153 147 147 161 164 164 153 151 168 179 159 163 163 167 175 146 163 166 165 155 149 146 134 144 136
186 176 172 75 48 37 116 106 106 124 140 140 144 149 142 137 135 136 140 142 139 144 158 164 160 163 176 179 177 183 176 173 167 161 158 168 167 164 153 147 143 129 128
180 171 163 129 75 86 124 104 109 121 123 126 129 131 130 122 112 118 124 122 121 122 128 134 152 150 154 159 168 169 151 151 164 173 166 178 176 158 156 149 140 130 140
182 178 163 143 111 120 128 114 119 122 125 125 128 128 128 128 123 120 120 115 108 118 125 135 140 138 154 156 144 160 159 156 153 136 146 157 176 169 166 156 147 143 135
187 177 156 144 124 119 132 115 116 121 126 129 133 135 138 135 135 132 122 119 118 129 130 138 137 152 132 141 140 145 155 141 151 147 140 143 151 159 160 155 151 145 136
191 181 162 150 132 126 133 123 116 128 133 133 135 147 160 157 153 161 160 146 135 136 140 141 146 158 142 145 133 128 128 136 122 120 140 151 151 150 150 153 148 145 143
195 186 173 161 144 136 128 122 119 130 141 143 139 140 152 166 157 165 178 140 127 136 148 151 152 142 144 137 137 132 130 143 139 128 134 139 142 140 137 142 152 152 147
199 192 180 174 163 151 140 120 119 114 136 135 108 99 123 128 129 131 134 131 127 141 152 153 154 151 143 141 135 139 142 140 134 126 129 134 139 142 148 156 156 152 155
200 195 186 181 177 165 157 141 131 121 134 143 134 114 98 110 124 127 128 130 124 130 132 143 149 144 142 137 139 143 141 142 143 141 137 140 143 148 149 152 148 147 163
196 196 192 188 183 174 166 160 149 140 132 142 142 132 124 114 114 120 133 143 138 139 136 140 147 143 140 136 137 144 145 139 142 153 145 143 145 149 150 146 148 146 197
198 197 195 191 188 185 181 172 164 161 151 144 141 136 136 138 133 129 128 134 143 151 149 150 153 156 156 150 146 149 151 146 141 150 157 154 156 162 161 166 175 201 259
200 200 196 192 194 194 191 189 182 176 176 172 167 157 148 141 139 139 142 146 153 158 161 165 171 168 169 167 167 168 171 179 192 190 183 177 181 195 199 196 207 234 273
201 201 198 196 195 199 200 202 202 196 192 191 188 185 177 169 166 164 160 158 160 166 176 174 174 176 178 182 186 185 188 197 210 209 203 205 212 211 207 219 229 243 271
201 202 200 200 198 199 203 206 207 210 213 206 202 201 198 194 187 181 182 181 181 184 188 194 194 193 192 191 193 198 202 205 206 210 212 220 224 219 217 224 233 239 253
202 203 202 201 201 201 203 206 212 215 215 215 222 223 213 210 209 209 205 206 210 211 210 209 208 208 208 208 207 208 209 209 210 217 227 235 236 232 229 223 224 235 228
208 204 204 204 203 205 205 206 209 211 217 220 217 213 220 224 215 214 220 224 224 224 225 226 224 223 220 219 218 217 217 217 222 230 236 239 237 237 229 224 227 229 211
210 211 206 206 206 207 211 212 212 212 213 217 215 216 217 216 216 218 223 225 224 225 226 227 226 226 226 225 222 222 223 225 231 235 238 239 239 238 230 225 226 216 209
210 212 211 211 210 211 211 216 220 220 218 220 217 216 217 219 218 219 222 228 230 229 228 229 228 228 230 229 230 230 230 233 238 242 242 241 241 236 227 224 221 208 207
213 216 215 214 214 215 215 217 221 227 228 227 225 227 226 225 225 223 224 226 227 228 229 231 232 234 235 235 236 238 238 240 243 245 244 242 238 234 229 226 215 208 202
213 217 218 219 220 220 221 220 220 224 230 232 232 232 234 235 237 235 233 231 231 232 231 232 234 236 239 241 241 242 244 246 247 247 247 245 238 230 224 228 214 203 194
216 218 220 222 224 224 226 226 227 229 232 236 237 237 237 238 240 240 240 240 240 240 242 242 241 240 242 245 246 245 245 248 249 250 246 241 228 219 218 217 211 199 182
224 224 223 226 229 229 230 231 231 232 232 234 237 240 240 240 242 244 243 242 243 243 245 248 251 254 251 250 251 251 250 249 250 260 250 237 223 220 213 198 194 197 208
231 231 231 230 233 234 233 234 235 235 237 239 238 242 245 244 246 247 248 248 247 247 246 248 251 254 256 255 254 253 254 245 247 249 243 233 222 216 202 191 194 193 203
237 236 239 236 233 236 236 236 237 236 236 239 245 244 244 247 247 249 249 251 252 252 253 254 256 258 260 260 258 256 254 249 249 244 237 230 222 211 198 190 191 189 209
231 238 240 243 238 235 238 239 239 237 236 234 237 244 250 253 254 254 256 257 258 261 262 262 260 259 259 260 260 260 257 256 252 248 242 220 215 208 198 189 187 192 207